UAL728 TJSJ-KIAD

Flight info

Callsign UAL728
Flight time N/A
Altitude 36000
Route ACONY3 PALDE DONQU LNHOM L452 OXANA AR8 ECG COUPN DORRN CAVLR6
Aircraft A20N/M-SDE2E3FGHIRWXY/LB1

Departure

Time 2026-04-27 22:56
Airport Luis Munoz Marin International Airport (TJSJ)

Arrival

Time N/A
Airport Washington Dulles International Airport (KIAD)
Time Latitude Longitude Altitude Speed Heading
2026-04-27 22:30 18.43892 -66.00149 17 ft 0 kts 249°
2026-04-27 22:48 18.43901 -66.00123 19 ft 5 kts 249°
2026-04-27 22:48 18.43914 -66.00087 19 ft 5 kts 249°
2026-04-27 22:48 18.43929 -66.00083 19 ft 10 kts 318°
2026-04-27 22:49 18.43938 -66.00089 17 ft 0 kts 328°
2026-04-27 22:50 18.43939 -66.00090 17 ft 1 kts 329°
2026-04-27 22:51 18.43976 -66.00107 17 ft 10 kts 336°
2026-04-27 22:51 18.44067 -66.00148 16 ft 18 kts 336°
2026-04-27 22:51 18.44182 -66.00202 16 ft 17 kts 331°
2026-04-27 22:51 18.44245 -66.00277 16 ft 13 kts 256°
2026-04-27 22:52 18.44206 -66.00373 18 ft 19 kts 246°
2026-04-27 22:52 18.44134 -66.00511 17 ft 22 kts 232°
2026-04-27 22:52 18.44060 -66.00656 17 ft 25 kts 247°
2026-04-27 22:52 18.43985 -66.00841 17 ft 29 kts 246°
2026-04-27 22:53 18.43923 -66.00995 17 ft 23 kts 247°
2026-04-27 22:53 18.43857 -66.01155 16 ft 25 kts 246°
2026-04-27 22:53 18.43808 -66.01316 15 ft 23 kts 263°
2026-04-27 22:53 18.43760 -66.01475 15 ft 22 kts 249°
2026-04-27 22:54 18.43757 -66.01510 15 ft 0 kts 277°
2026-04-27 22:54 18.43767 -66.01531 17 ft 11 kts 303°
2026-04-27 22:54 18.43856 -66.01537 15 ft 16 kts 57°
2026-04-27 22:54 18.43870 -66.01501 15 ft 0 kts 69°
2026-04-27 22:55 18.43875 -66.01488 15 ft 16 kts 69°
2026-04-27 22:55 18.44030 -66.01104 16 ft 94 kts 67°
2026-04-27 22:55 18.44372 -66.00262 16 ft 154 kts 67°
2026-04-27 22:55 18.44854 -65.99095 262 ft 182 kts 68°
2026-04-27 22:56 18.45448 -65.97874 871 ft 197 kts 49°
2026-04-27 22:56 18.46703 -65.97211 1419 ft 217 kts
2026-04-27 22:56 18.48208 -65.97590 1912 ft 232 kts 329°
2026-04-27 22:56 18.49607 -65.98532 2585 ft 245 kts 328°
2026-04-27 22:57 18.51136 -65.99438 3290 ft 260 kts 330°
2026-04-27 22:57 18.52766 -66.00380 4008 ft 273 kts 330°
2026-04-27 22:57 18.54429 -66.01390 4740 ft 277 kts 322°
2026-04-27 22:57 18.55802 -66.02805 5465 ft 277 kts 310°
2026-04-27 22:58 18.57054 -66.04360 6195 ft 280 kts 308°
2026-04-27 22:58 18.58301 -66.05954 6914 ft 283 kts 308°
2026-04-27 22:58 18.59568 -66.07548 7623 ft 284 kts 309°
2026-04-27 22:58 18.60857 -66.09135 8342 ft 286 kts 309°
2026-04-27 22:59 18.62147 -66.10706 9079 ft 288 kts 309°
2026-04-27 22:59 18.63471 -66.12309 9838 ft 292 kts 309°
2026-04-27 22:59 18.64821 -66.13939 10551 ft 297 kts 309°
2026-04-27 22:59 18.66189 -66.15589 11250 ft 301 kts 309°
2026-04-27 23:00 18.68976 -66.18951 12718 ft 307 kts 308°
2026-04-27 23:00 18.70387 -66.20655 13471 ft 309 kts 308°
2026-04-27 23:00 18.71804 -66.22366 14193 ft 310 kts 308°
2026-04-27 23:01 18.73236 -66.24098 14729 ft 318 kts 308°
2026-04-27 23:01 18.74709 -66.25883 15207 ft 326 kts 308°
2026-04-27 23:01 18.76216 -66.27708 15686 ft 334 kts 308°
2026-04-27 23:01 18.77761 -66.29578 16169 ft 341 kts 308°
2026-04-27 23:02 18.79315 -66.31460 16653 ft 348 kts 308°
2026-04-27 23:02 18.80920 -66.33402 17160 ft 354 kts 308°
2026-04-27 23:02 18.82554 -66.35382 17678 ft 359 kts 308°
2026-04-27 23:02 18.84210 -66.37388 18188 ft 364 kts 308°
2026-04-27 23:03 18.85886 -66.39418 18655 ft 369 kts 308°
2026-04-27 23:03 18.87579 -66.41470 19093 ft 373 kts 308°
2026-04-27 23:03 18.89302 -66.43562 19412 ft 381 kts 308°
2026-04-27 23:03 18.91061 -66.45698 19721 ft 390 kts 308°
2026-04-27 23:04 18.92880 -66.47869 20027 ft 398 kts 310°
2026-04-27 23:04 18.94893 -66.49929 20340 ft 407 kts 313°
2026-04-27 23:04 18.96956 -66.52011 20656 ft 413 kts 313°
2026-04-27 23:04 18.99050 -66.54130 20974 ft 420 kts 312°
2026-04-27 23:05 19.01179 -66.56288 21290 ft 426 kts 312°
2026-04-27 23:05 19.03299 -66.58439 21609 ft 431 kts 312°
2026-04-27 23:05 19.05475 -66.60647 21938 ft 436 kts 312°
2026-04-27 23:05 19.07685 -66.62883 22261 ft 441 kts 313°
2026-04-27 23:06 19.10029 -66.65023 22598 ft 447 kts 315°